ADB1124 LIMC-EDDP

Flight info

Callsign ADB1124
Flight time 1h 18m
Altitude 32000
Route PEPAG DCT ABESI N851 UTAVO DCT ROLSA DCT LOKTA DCT ETAGO/N0431F310 DCT IBAGA T435 PIBAD T954 GOXLI GOXLI1V
Aircraft A225/J-SCDFGHIRUWXYZ/LB1

Departure

Time 2026-05-05 12:17
Airport Milan Malpensa International Airport (LIMC)

Arrival

Time 2026-05-05 13:35
Airport Leipzig/Halle Airport (EDDP)
Time Latitude Longitude Altitude Speed Heading
2026-05-05 11:41 45.60942 8.72045 724 ft 0 kts 259°
2026-05-05 11:53 45.60943 8.72048 746 ft 2 kts 259°
2026-05-05 11:53 45.60948 8.72084 744 ft 4 kts 259°
2026-05-05 11:53 45.60953 8.72122 742 ft 4 kts 259°
2026-05-05 11:54 45.60955 8.72154 742 ft 4 kts 290°
2026-05-05 11:54 45.60940 8.72175 742 ft 4 kts 347°
2026-05-05 11:54 45.60920 8.72181 742 ft 0 kts 348°
2026-05-05 12:08 45.60924 8.72179 746 ft 2 kts 348°
2026-05-05 12:09 45.60945 8.72173 742 ft 4 kts 348°
2026-05-05 12:09 45.60982 8.72162 743 ft 7 kts 348°
2026-05-05 12:09 45.61035 8.72147 743 ft 9 kts 348°
2026-05-05 12:09 45.61099 8.72131 742 ft 6 kts
2026-05-05 12:10 45.61111 8.72139 742 ft 0 kts 36°
2026-05-05 12:10 45.61115 8.72144 743 ft 1 kts 45°
2026-05-05 12:10 45.61122 8.72159 743 ft 3 kts 63°
2026-05-05 12:10 45.61132 8.72202 743 ft 6 kts 72°
2026-05-05 12:11 45.61132 8.72236 743 ft 0 kts 120°
2026-05-05 12:11 45.61124 8.72250 743 ft 2 kts 139°
2026-05-05 12:11 45.61116 8.72256 742 ft 3 kts 160°
2026-05-05 12:11 45.61080 8.72264 742 ft 8 kts 171°
2026-05-05 12:12 45.61043 8.72297 742 ft 5 kts 118°
2026-05-05 12:12 45.61038 8.72351 745 ft 7 kts 85°
2026-05-05 12:12 45.61049 8.72443 746 ft 12 kts 79°
2026-05-05 12:12 45.61061 8.72534 744 ft 7 kts 79°
2026-05-05 12:13 45.61072 8.72624 743 ft 12 kts 79°
2026-05-05 12:13 45.61090 8.72761 745 ft 15 kts 79°
2026-05-05 12:13 45.61113 8.72931 746 ft 21 kts 79°
2026-05-05 12:13 45.61179 8.73095 742 ft 18 kts 32°
2026-05-05 12:14 45.61283 8.73194 742 ft 19 kts 34°
2026-05-05 12:14 45.61389 8.73271 744 ft 15 kts 358°
2026-05-05 12:14 45.61488 8.73243 745 ft 15 kts 349°
2026-05-05 12:14 45.61565 8.73222 744 ft 10 kts 349°
2026-05-05 12:15 45.61611 8.73230 742 ft 4 kts 50°
2026-05-05 12:15 45.61614 8.73245 742 ft 2 kts 83°
2026-05-05 12:15 45.61618 8.73288 742 ft 7 kts 82°
2026-05-05 12:15 45.61630 8.73386 745 ft 12 kts 84°
2026-05-05 12:16 45.61597 8.73516 743 ft 17 kts 116°
2026-05-05 12:16 45.61592 8.73697 743 ft 19 kts 71°
2026-05-05 12:16 45.61660 8.73727 742 ft 13 kts 350°
2026-05-05 12:16 45.61873 8.73668 745 ft 60 kts 349°
2026-05-05 12:17 45.62479 8.73500 746 ft 115 kts 349°
2026-05-05 12:17 45.63399 8.73247 943 ft 141 kts 348°
2026-05-05 12:17 45.64319 8.73156 1602 ft 133 kts 13°
2026-05-05 12:17 45.65171 8.73655 2171 ft 133 kts 25°
2026-05-05 12:18 45.66026 8.74135 2692 ft 135 kts 24°
2026-05-05 12:18 45.66940 8.74671 2997 ft 156 kts 26°
2026-05-05 12:18 45.68070 8.75348 3180 ft 195 kts 25°
2026-05-05 12:18 45.69408 8.76144 3548 ft 221 kts 25°
2026-05-05 12:19 45.70916 8.77045 3964 ft 249 kts 25°
2026-05-05 12:19 45.72538 8.78017 4945 ft 247 kts 25°
2026-05-05 12:19 45.74140 8.78975 5921 ft 255 kts 26°
2026-05-05 12:19 45.75786 8.79963 6858 ft 258 kts 25°
2026-05-05 12:20 45.77464 8.80968 7680 ft 265 kts 24°
2026-05-05 12:20 45.79188 8.82004 8528 ft 271 kts 24°
2026-05-05 12:20 45.80944 8.83060 9352 ft 277 kts 22°
2026-05-05 12:20 45.82745 8.84144 10187 ft 283 kts 22°
2026-05-05 12:21 45.84580 8.85248 10949 ft 288 kts 22°
2026-05-05 12:21 45.86424 8.86359 11683 ft 293 kts 22°
2026-05-05 12:21 45.88319 8.87503 12429 ft 298 kts 21°
2026-05-05 12:21 45.90246 8.88665 13144 ft 302 kts 21°
2026-05-05 12:22 45.92201 8.89846 13856 ft 307 kts 21°
2026-05-05 12:22 45.94188 8.91046 14365 ft 318 kts 21°
2026-05-05 12:22 45.96313 8.92328 14385 ft 345 kts 21°
2026-05-05 12:22 45.98610 8.93719 14450 ft 369 kts 21°
2026-05-05 12:23 46.01041 8.95195 14483 ft 390 kts 21°
2026-05-05 12:23 46.03570 8.96730 14996 ft 394 kts 22°
2026-05-05 12:23 46.06110 8.98273 15530 ft 398 kts 21°
2026-05-05 12:23 46.08677 8.99833 16061 ft 401 kts 22°
2026-05-05 12:24 46.11253 9.01400 16589 ft 404 kts 22°
2026-05-05 12:24 46.13862 9.02972 17089 ft 407 kts 20°
2026-05-05 12:24 46.16604 9.03994 17444 ft 410 kts
2026-05-05 12:24 46.19431 9.04004 18035 ft 406 kts 353°
2026-05-05 12:25 46.22246 9.03511 18444 ft 409 kts 349°
2026-05-05 12:25 46.25082 9.02970 18841 ft 412 kts 351°
2026-05-05 12:25 46.27947 9.02619 19237 ft 416 kts 353°
2026-05-05 12:25 46.30848 9.02329 19643 ft 418 kts 353°
2026-05-05 12:26 46.33753 9.01939 20024 ft 420 kts 351°
2026-05-05 12:26 46.36669 9.01489 20395 ft 423 kts 351°
2026-05-05 12:26 46.39614 9.01083 20714 ft 425 kts 352°
2026-05-05 12:26 46.42573 9.00717 21075 ft 428 kts 352°
2026-05-05 12:27 46.45545 9.00329 21433 ft 430 kts 352°
2026-05-05 12:27 46.48546 8.99910 21729 ft 433 kts 352°
2026-05-05 12:27 46.51547 8.99494 22040 ft 435 kts 352°
2026-05-05 12:27 46.54571 8.99092 22389 ft 437 kts 352°
2026-05-05 12:28 46.57611 8.98692 22716 ft 439 kts 352°
2026-05-05 12:28 46.60659 8.98280 23008 ft 441 kts 352°
2026-05-05 12:28 46.63720 8.97858 23305 ft 443 kts 352°
2026-05-05 12:28 46.66787 8.97442 23653 ft 444 kts 352°
2026-05-05 12:29 46.69848 8.97031 23821 ft 448 kts 353°
2026-05-05 12:29 46.72998 8.96605 24077 ft 449 kts 352°
2026-05-05 12:29 46.76077 8.96184 24305 ft 451 kts 353°
2026-05-05 12:29 46.79212 8.95756 24530 ft 453 kts 353°
2026-05-05 12:30 46.82357 8.95329 24736 ft 455 kts 353°
2026-05-05 12:30 46.85515 8.94900 24929 ft 456 kts 353°
2026-05-05 12:30 46.88688 8.94465 25139 ft 457 kts 353°
2026-05-05 12:30 46.91868 8.94029 25340 ft 459 kts 353°
2026-05-05 12:31 46.95058 8.93592 25487 ft 462 kts 353°
2026-05-05 12:31 46.95798 8.93491 25545 ft 462 kts 353°
2026-05-05 12:31 46.97990 8.93191 25711 ft 462 kts 353°
2026-05-05 12:31 47.01194 8.92752 25872 ft 464 kts 353°
2026-05-05 12:32 47.04417 8.92309 26077 ft 465 kts 353°
2026-05-05 12:32 47.07653 8.91862 26241 ft 467 kts 353°
2026-05-05 12:32 47.10625 8.91452 26416 ft 468 kts 353°
2026-05-05 12:32 47.13877 8.91006 26593 ft 470 kts 354°
2026-05-05 12:33 47.17140 8.90556 26762 ft 471 kts 354°
2026-05-05 12:33 47.20408 8.90104 26933 ft 473 kts 354°
2026-05-05 12:33 47.23695 8.89648 27106 ft 474 kts 354°
2026-05-05 12:33 47.26982 8.89202 27265 ft 475 kts 355°
2026-05-05 12:34 47.30301 8.89326 27396 ft 478 kts
2026-05-05 12:34 47.33509 8.90279 27569 ft 479 kts 14°
2026-05-05 12:34 47.36743 8.91488 27784 ft 480 kts 15°
2026-05-05 12:34 47.39960 8.92630 27820 ft 484 kts 13°
2026-05-05 12:35 47.43325 8.93665 27823 ft 489 kts 12°
2026-05-05 12:35 47.46664 8.94702 27833 ft 493 kts 13°
2026-05-05 12:35 47.50018 8.95851 27834 ft 496 kts 14°
2026-05-05 12:35 47.53395 8.97025 27851 ft 500 kts 14°
2026-05-05 12:36 47.56791 8.98140 27869 ft 503 kts 13°
2026-05-05 12:36 47.60230 8.99246 27875 ft 506 kts 13°
2026-05-05 12:36 47.63665 9.00395 28006 ft 506 kts 14°
2026-05-05 12:36 47.67101 9.01567 28089 ft 508 kts 14°
2026-05-05 12:37 47.70552 9.02723 28203 ft 508 kts 13°
2026-05-05 12:37 47.74007 9.03862 28284 ft 509 kts 13°
2026-05-05 12:37 47.80918 9.06187 28470 ft 510 kts 14°
2026-05-05 12:38 47.87859 9.08520 28663 ft 512 kts 14°
2026-05-05 12:38 47.94810 9.10862 28861 ft 513 kts 14°
2026-05-05 12:39 48.01798 9.13228 29017 ft 515 kts 14°
2026-05-05 12:39 48.08795 9.15598 29167 ft 516 kts 14°
2026-05-05 12:40 48.15817 9.17990 29299 ft 516 kts 14°
2026-05-05 12:40 48.22670 9.21183 29386 ft 516 kts 20°
2026-05-05 12:41 48.29098 9.24400 29498 ft 517 kts 19°
2026-05-05 12:41 48.35957 9.27712 29591 ft 518 kts 20°
2026-05-05 12:42 48.42807 9.31137 29687 ft 519 kts 19°
2026-05-05 12:42 48.49687 9.34507 29787 ft 521 kts 19°
2026-05-05 12:43 48.56580 9.37947 29890 ft 521 kts 19°
2026-05-05 12:43 48.63485 9.41368 29950 ft 523 kts 19°
2026-05-05 12:44 48.70356 9.44809 30071 ft 523 kts 20°
2026-05-05 12:44 48.73726 9.47044 30032 ft 522 kts 31°
2026-05-05 12:44 48.76749 9.50053 30100 ft 519 kts 37°
2026-05-05 12:45 48.82545 9.56464 30120 ft 520 kts 37°
2026-05-05 12:45 48.88546 9.62647 30156 ft 521 kts 37°
2026-05-05 12:46 48.94466 9.69064 30198 ft 522 kts 37°
2026-05-05 12:46 49.00447 9.75383 30131 ft 525 kts 37°
2026-05-05 12:47 49.03470 9.78613 30002 ft 523 kts 37°
2026-05-05 12:47 49.06399 9.81788 29800 ft 522 kts 37°
2026-05-05 12:47 49.09410 9.85030 29524 ft 521 kts 37°
2026-05-05 12:47 49.12362 9.88179 29229 ft 513 kts 37°
2026-05-05 12:48 49.15252 9.91276 28931 ft 501 kts 37°
2026-05-05 12:48 49.18071 9.94327 28635 ft 492 kts 37°
2026-05-05 12:48 49.20832 9.97321 28368 ft 486 kts 37°
2026-05-05 12:48 49.23593 10.00300 28107 ft 484 kts 37°
2026-05-05 12:49 49.26305 10.03226 27832 ft 481 kts 37°
2026-05-05 12:49 49.29058 10.06212 27565 ft 479 kts 37°
2026-05-05 12:49 49.31731 10.09120 27323 ft 476 kts 37°
2026-05-05 12:49 49.34431 10.12055 27090 ft 474 kts 37°
2026-05-05 12:50 49.37154 10.15015 26854 ft 472 kts 37°
2026-05-05 12:50 49.39795 10.17892 26634 ft 470 kts 37°
2026-05-05 12:50 49.42461 10.20803 26352 ft 469 kts 37°
2026-05-05 12:50 49.45110 10.23699 26133 ft 467 kts 37°
2026-05-05 12:51 49.47752 10.26589 25913 ft 465 kts 37°
2026-05-05 12:51 49.50383 10.29472 25686 ft 466 kts 37°
2026-05-05 12:51 49.53045 10.32395 25484 ft 475 kts 37°
2026-05-05 12:51 49.55746 10.35363 25272 ft 478 kts 37°
2026-05-05 12:52 49.58455 10.38340 25058 ft 478 kts 37°
2026-05-05 12:52 49.61160 10.41321 24836 ft 478 kts 37°
2026-05-05 12:52 49.62954 10.43301 24696 ft 477 kts 37°
2026-05-05 12:52 49.65675 10.46308 24488 ft 475 kts 37°
2026-05-05 12:53 49.68366 10.49284 24277 ft 474 kts 37°
2026-05-05 12:53 49.71045 10.52249 24070 ft 472 kts 37°
2026-05-05 12:53 49.73712 10.55198 23854 ft 470 kts 36°
2026-05-05 12:53 49.76495 10.57733 23642 ft 470 kts 28°
2026-05-05 12:54 49.82348 10.62234 23205 ft 467 kts 27°
2026-05-05 12:54 49.85231 10.64535 22953 ft 466 kts 28°
2026-05-05 12:54 49.88099 10.66891 22738 ft 464 kts 28°
2026-05-05 12:55 49.90972 10.69193 22474 ft 463 kts 27°
2026-05-05 12:55 49.93840 10.71444 22226 ft 461 kts 27°
2026-05-05 12:55 49.96694 10.73715 22007 ft 460 kts 27°
2026-05-05 12:55 49.99526 10.76008 21763 ft 458 kts 28°
2026-05-05 12:56 50.02352 10.78290 21530 ft 457 kts 27°
2026-05-05 12:56 50.05171 10.80544 21304 ft 456 kts 27°
2026-05-05 12:56 50.08008 10.82756 21054 ft 453 kts 24°
2026-05-05 12:56 50.10915 10.84672 20838 ft 453 kts 22°
2026-05-05 12:57 50.13824 10.86545 20609 ft 451 kts 22°
2026-05-05 12:57 50.16719 10.88431 20391 ft 450 kts 22°
2026-05-05 12:57 50.19593 10.90332 20172 ft 448 kts 22°
2026-05-05 12:57 50.22475 10.92232 19949 ft 447 kts 22°
2026-05-05 12:58 50.25339 10.94106 19725 ft 446 kts 22°
2026-05-05 12:58 50.28157 10.95954 19532 ft 444 kts 22°
2026-05-05 12:58 50.31031 10.97852 19300 ft 443 kts 22°
2026-05-05 12:58 50.33839 10.99709 19075 ft 442 kts 22°
2026-05-05 12:59 50.36664 11.01574 18884 ft 440 kts 22°
2026-05-05 12:59 50.39478 11.03473 18656 ft 438 kts 24°
2026-05-05 12:59 50.42236 11.05507 18449 ft 438 kts 24°
2026-05-05 13:00 50.47778 11.09410 18019 ft 435 kts 24°
2026-05-05 13:00 50.50523 11.11406 17776 ft 434 kts 25°
2026-05-05 13:01 50.58703 11.17330 17064 ft 428 kts 24°
2026-05-05 13:01 50.61405 11.19286 16836 ft 427 kts 24°
2026-05-05 13:01 50.64092 11.21246 16606 ft 425 kts 24°
2026-05-05 13:01 50.66761 11.23190 16382 ft 423 kts 24°
2026-05-05 13:02 50.69434 11.25130 16159 ft 421 kts 24°
2026-05-05 13:02 50.72090 11.27062 15921 ft 419 kts 24°
2026-05-05 13:02 50.74731 11.28991 15713 ft 418 kts 24°
2026-05-05 13:02 50.77365 11.30917 15479 ft 416 kts 24°
2026-05-05 13:03 50.79983 11.32830 15258 ft 414 kts 24°
2026-05-05 13:03 50.82600 11.34745 15047 ft 413 kts 24°
2026-05-05 13:03 50.85198 11.36650 14817 ft 411 kts 24°
2026-05-05 13:03 50.87759 11.38531 14607 ft 410 kts 24°
2026-05-05 13:04 50.90340 11.40426 14392 ft 408 kts 24°
2026-05-05 13:04 50.92942 11.42341 14177 ft 406 kts 24°
2026-05-05 13:04 50.95469 11.44203 13971 ft 405 kts 24°
2026-05-05 13:04 50.98051 11.46108 13753 ft 404 kts 24°
2026-05-05 13:05 51.00562 11.47961 13524 ft 402 kts 24°
2026-05-05 13:05 51.03098 11.49836 13289 ft 401 kts 24°
2026-05-05 13:05 51.05622 11.51705 13057 ft 400 kts 24°
2026-05-05 13:05 51.08139 11.53578 12805 ft 397 kts 25°
2026-05-05 13:06 51.10468 11.55935 12552 ft 398 kts 39°
2026-05-05 13:06 51.12353 11.59154 12263 ft 397 kts 54°
2026-05-05 13:06 51.13727 11.62943 11952 ft 394 kts 64°
2026-05-05 13:06 51.14883 11.66891 11650 ft 392 kts 66°
2026-05-05 13:07 51.16034 11.70809 11350 ft 390 kts 64°
2026-05-05 13:07 51.17310 11.74603 11051 ft 388 kts 62°
2026-05-05 13:07 51.18614 11.78363 10758 ft 386 kts 62°
2026-05-05 13:07 51.19844 11.82153 10460 ft 384 kts 64°
2026-05-05 13:08 51.21040 11.85953 10177 ft 382 kts 64°
2026-05-05 13:08 51.22249 11.89703 9897 ft 379 kts 64°
2026-05-05 13:08 51.23144 11.93621 9542 ft 371 kts 78°
2026-05-05 13:08 51.23436 11.97578 9206 ft 357 kts 88°
2026-05-05 13:09 51.23549 12.01472 8874 ft 346 kts 89°
2026-05-05 13:09 51.23695 12.05251 8562 ft 337 kts 86°
2026-05-05 13:09 51.23902 12.08939 8255 ft 329 kts 85°
2026-05-05 13:09 51.24096 12.12541 7940 ft 323 kts 86°
2026-05-05 13:10 51.24255 12.16079 7633 ft 317 kts 87°
2026-05-05 13:10 51.24410 12.19559 7330 ft 311 kts 86°
2026-05-05 13:10 51.24573 12.22983 7026 ft 307 kts 86°
2026-05-05 13:10 51.24735 12.26355 6729 ft 303 kts 86°
2026-05-05 13:11 51.24889 12.29674 6481 ft 297 kts 86°
2026-05-05 13:11 51.25039 12.32943 6239 ft 292 kts 86°
2026-05-05 13:11 51.25189 12.36145 5973 ft 287 kts 85°
2026-05-05 13:11 51.25654 12.39206 5694 ft 282 kts 68°
2026-05-05 13:12 51.26448 12.42044 5434 ft 278 kts 65°
2026-05-05 13:12 51.27253 12.44830 5187 ft 275 kts 66°
2026-05-05 13:12 51.27999 12.47600 5014 ft 269 kts 67°
2026-05-05 13:12 51.28720 12.50330 4831 ft 264 kts 66°
2026-05-05 13:13 51.29441 12.53004 4644 ft 259 kts 66°
2026-05-05 13:13 51.30143 12.55594 4474 ft 255 kts 66°
2026-05-05 13:13 51.30839 12.58176 4278 ft 251 kts 66°
2026-05-05 13:13 51.31338 12.60817 4084 ft 247 kts 83°
2026-05-05 13:14 51.31450 12.63546 3915 ft 245 kts 87°
2026-05-05 13:14 51.31525 12.66258 3746 ft 244 kts 86°
2026-05-05 13:14 51.31640 12.68951 3558 ft 242 kts 85°
2026-05-05 13:14 51.31765 12.71618 3377 ft 239 kts 85°
2026-05-05 13:15 51.31879 12.74262 3240 ft 236 kts 85°
2026-05-05 13:15 51.32065 12.76803 3210 ft 226 kts 73°
2026-05-05 13:15 51.32806 12.78957 3116 ft 220 kts 47°
2026-05-05 13:15 51.33873 12.80678 2967 ft 217 kts 45°
2026-05-05 13:16 51.34939 12.82333 2937 ft 209 kts 38°
2026-05-05 13:16 51.36255 12.83063 2908 ft 200 kts 353°
2026-05-05 13:16 51.37452 12.82113 2969 ft 198 kts 307°
2026-05-05 13:16 51.38119 12.80177 3389 ft 205 kts 295°
2026-05-05 13:17 51.38754 12.78024 3629 ft 222 kts 299°
2026-05-05 13:17 51.39587 12.75836 3281 ft 234 kts 303°
2026-05-05 13:17 51.40500 12.73665 3092 ft 233 kts 310°
2026-05-05 13:17 51.41600 12.71816 3034 ft 226 kts 317°
2026-05-05 13:18 51.42723 12.70115 2971 ft 219 kts 317°
2026-05-05 13:18 51.43809 12.68480 3027 ft 208 kts 317°
2026-05-05 13:18 51.44765 12.66843 2947 ft 198 kts 299°
2026-05-05 13:18 51.44991 12.64772 2929 ft 185 kts 265°
2026-05-05 13:19 51.44840 12.62804 3036 ft 181 kts 263°
2026-05-05 13:19 51.44755 12.60712 3021 ft 193 kts 275°
2026-05-05 13:19 51.44845 12.58572 2984 ft 191 kts 271°
2026-05-05 13:19 51.44772 12.56467 3008 ft 190 kts 265°
2026-05-05 13:20 51.44636 12.54342 2985 ft 192 kts 266°
2026-05-05 13:20 51.44545 12.52220 2982 ft 190 kts 267°
2026-05-05 13:20 51.44455 12.50117 2978 ft 187 kts 266°
2026-05-05 13:20 51.44370 12.48371 2959 ft 178 kts 266°
2026-05-05 13:21 51.44275 12.46462 2935 ft 169 kts 266°
2026-05-05 13:21 51.44186 12.44400 2770 ft 205 kts 267°
2026-05-05 13:21 51.44086 12.42123 2703 ft 203 kts 267°
2026-05-05 13:22 51.44079 12.41977 2699 ft 203 kts 267°
2026-05-05 13:22 51.43964 12.39806 2724 ft 189 kts 266°
2026-05-05 13:22 51.43861 12.37658 2357 ft 196 kts 267°
2026-05-05 13:22 51.43758 12.35574 2139 ft 172 kts 266°
2026-05-05 13:23 51.43730 12.35074 2191 ft 165 kts 267°
2026-05-05 13:23 51.43612 12.33398 2684 ft 143 kts 264°
2026-05-05 13:23 51.43638 12.33694 2316 ft 158 kts 270°
2026-05-05 13:23 51.43614 12.31667 1515 ft 198 kts 265°
2026-05-05 13:24 51.43471 12.29335 842 ft 220 kts 270°
2026-05-05 13:24 51.43372 12.26867 551 ft 220 kts 266°
2026-05-05 13:24 51.43259 12.24525 602 ft 196 kts 267°
2026-05-05 13:24 51.43291 12.26031 582 ft 189 kts 271°
2026-05-05 13:25 51.43273 12.25072 655 ft 1075 kts 268°
2026-05-05 13:25 51.43317 12.27370 961 ft 1513 kts 268°
2026-05-05 13:25 51.43389 12.31023 996 ft 168 kts 272°
2026-05-05 13:25 51.43457 12.29019 792 ft 203 kts 271°
2026-05-05 13:26 51.43361 12.26680 529 ft 211 kts 267°
2026-05-05 13:26 51.43250 12.24421 1169 ft 207 kts 267°
2026-05-05 13:26 51.43078 12.21895 2108 ft 243 kts 265°
2026-05-05 13:26 51.42913 12.19287 3946 ft 227 kts 264°
2026-05-05 13:27 51.42759 12.16847 4395 ft 222 kts 264°
2026-05-05 13:27 51.42601 12.14322 3951 ft 233 kts 264°
2026-05-05 13:27 51.42663 12.11686 3365 ft 245 kts 287°
2026-05-05 13:27 51.43610 12.09392 2728 ft 258 kts 322°
2026-05-05 13:28 51.45240 12.08302 2549 ft 251 kts 351°
2026-05-05 13:28 51.46913 12.07995 2641 ft 235 kts 356°
2026-05-05 13:28 51.48461 12.08188 2781 ft 217 kts 24°
2026-05-05 13:28 51.49511 12.09728 2874 ft 204 kts 67°
2026-05-05 13:29 51.49779 12.11938 3150 ft 206 kts 85°
2026-05-05 13:29 51.49856 12.14361 3603 ft 229 kts 86°
2026-05-05 13:29 51.49938 12.17022 3350 ft 246 kts 86°
2026-05-05 13:29 51.50021 12.19771 3150 ft 245 kts 86°
2026-05-05 13:30 51.50097 12.22465 3059 ft 239 kts 86°
2026-05-05 13:30 51.50170 12.25083 2969 ft 233 kts 86°
2026-05-05 13:30 51.50240 12.27616 2978 ft 223 kts 86°
2026-05-05 13:30 51.50308 12.30059 2970 ft 216 kts 86°
2026-05-05 13:31 51.50376 12.32479 2974 ft 217 kts 86°
2026-05-05 13:31 51.50443 12.34857 2962 ft 210 kts 86°
2026-05-05 13:31 51.50506 12.37154 2954 ft 202 kts 86°
2026-05-05 13:31 51.50526 12.39393 2743 ft 205 kts 99°
2026-05-05 13:32 51.49822 12.41412 2453 ft 214 kts 142°
2026-05-05 13:32 51.48458 12.42245 2247 ft 216 kts 176°
2026-05-05 13:32 51.47014 12.41637 2006 ft 219 kts 218°
2026-05-05 13:32 51.45851 12.40065 1867 ft 219 kts 222°
2026-05-05 13:33 51.44722 12.38480 1824 ft 211 kts 221°
2026-05-05 13:33 51.43644 12.36929 1689 ft 205 kts 230°
2026-05-05 13:33 51.43135 12.34872 1466 ft 198 kts 276°
2026-05-05 13:33 51.43378 12.32845 1437 ft 180 kts 286°
2026-05-05 13:34 51.43534 12.30828 1021 ft 180 kts 271°
2026-05-05 13:34 51.43482 12.29542 816 ft 169 kts 267°
2026-05-05 13:34 51.43411 12.27747 611 ft 157 kts 269°
2026-05-05 13:34 51.43324 12.26018 468 ft 149 kts 268°
2026-05-05 13:35 51.43286 12.24594 453 ft 101 kts 257°
2026-05-05 13:35 51.43223 12.23645 452 ft 73 kts 266°
2026-05-05 13:35 51.43172 12.22987 446 ft 48 kts 239°
2026-05-05 13:35 51.43021 12.22621 428 ft 30 kts 218°
2026-05-05 13:36 51.42863 12.22544 447 ft 12 kts 254°
2026-05-05 13:36 51.42850 12.22383 446 ft 20 kts 268°
2026-05-05 13:36 51.42835 12.22027 436 ft 42 kts 264°
2026-05-05 13:36 51.42813 12.21523 429 ft 48 kts 266°
2026-05-05 13:37 51.42724 12.21208 431 ft 26 kts 193°
2026-05-05 13:37 51.42480 12.21106 436 ft 39 kts 196°
2026-05-05 13:37 51.42199 12.20984 426 ft 46 kts 195°
2026-05-05 13:37 51.41878 12.20843 424 ft 49 kts 195°
2026-05-05 13:38 51.41539 12.20695 431 ft 51 kts 195°
2026-05-05 13:38 51.41190 12.20544 449 ft 48 kts 195°
2026-05-05 13:38 51.40995 12.20520 437 ft 9 kts 102°
2026-05-05 13:38 51.41004 12.20782 449 ft 31 kts 85°
2026-05-05 13:39 51.41021 12.21138 458 ft 32 kts 85°
2026-05-05 13:39 51.41038 12.21510 464 ft 34 kts 86°
2026-05-05 13:39 51.41057 12.21882 465 ft 35 kts 84°
2026-05-05 13:39 51.41074 12.22283 469 ft 38 kts 85°
2026-05-05 13:40 51.41094 12.22693 469 ft 37 kts 85°
2026-05-05 13:40 51.41112 12.23072 479 ft 31 kts 85°
2026-05-05 13:40 51.41128 12.23421 484 ft 30 kts 85°
2026-05-05 13:40 51.41143 12.23743 474 ft 25 kts 85°
2026-05-05 13:41 51.41156 12.23996 478 ft 22 kts 85°
2026-05-05 13:41 51.41168 12.24262 476 ft 24 kts 85°
2026-05-05 13:41 51.41177 12.24443 477 ft 13 kts 85°
2026-05-05 13:41 51.41170 12.24568 474 ft 4 kts 157°
2026-05-05 13:42 51.41148 12.24575 475 ft 5 kts 174°
2026-05-05 13:42 51.41121 12.24580 474 ft 3 kts 168°
2026-05-05 13:42 51.41107 12.24592 475 ft 3 kts 141°
2026-05-05 13:42 51.41069 12.24640 472 ft 10 kts 153°
2026-05-05 13:43 51.41007 12.24654 472 ft 8 kts 175°
2026-05-05 13:43 51.40935 12.24664 470 ft 14 kts 176°
2026-05-05 13:43 51.40848 12.24673 468 ft 16 kts 176°
2026-05-05 13:43 51.40774 12.24689 468 ft 4 kts 137°
2026-05-05 13:44 51.40771 12.24697 466 ft 1 kts 111°
2026-05-05 13:44 51.40773 12.24717 465 ft 5 kts 79°
2026-05-05 13:44 51.40778 12.24793 466 ft 3 kts 86°
2026-05-05 13:44 51.40779 12.24823 469 ft 2 kts 86°
2026-05-05 13:45 51.40780 12.24827 469 ft 0 kts 86°